N4XWC Weather Reports


time (UTC)temp
C
wind
direction
speed
KPH
gust
KPH
rain 1hr
cm
rain 24hr
cm
rain mn
cm
humidity
%
barometer
mb
20260904045224 26 117 0.0 3.2 0.00 0.00 0.00 80 1014.2
20260904045157 26 109 0.0 3.2 0.00 0.00 0.00 80 1014.2
20260904044722 26 103 0.0 0.0 0.00 0.00 0.00 80 1014.2
20260904044223 26 99 0.0 0.0 0.00 0.00 0.00 80 1014.1
20260904044156 26 99 0.0 0.0 0.00 0.00 0.00 80 1014.1
20260904043723 26 99 1.6 3.2 0.00 0.00 0.00 79 1014.1
20260904043222 26 93 1.6 1.6 0.00 0.00 0.00 79 1014.1
20260904043156 26 93 0.0 1.6 0.00 0.00 0.00 79 1014.1
20260904042723 26 90 1.6 3.2 0.00 0.00 0.00 79 1014.2
20260904042224 26 104 0.0 0.0 0.00 0.00 0.00 79 1014.2
20260904042159 26 89 0.0 0.0 0.00 0.00 0.00 78 1014.2
20260904041722 26 79 0.0 0.0 0.00 0.00 0.00 78 1014.2
20260904041223 26 69 3.2 3.2 0.00 0.00 0.00 79 1014.4
20260904041156 26 61 1.6 3.2 0.00 0.00 0.00 79 1014.4
20260904040724 26 72 3.2 3.2 0.00 0.00 0.00 79 1014.4
20260904040222 26 62 1.6 3.2 0.00 0.00 0.00 79 1014.4
20260904040157 26 65 1.6 3.2 0.00 0.00 0.00 79 1014.4
20260904035723 26 55 0.0 3.2 0.00 0.00 0.00 79 1014.6
20260904035223 25 69 1.6 3.2 0.00 0.00 0.00 80 1014.6
20260904035156 25 64 0.0 3.2 0.00 0.00 0.00 80 1014.6
20260904034722 25 76 3.2 3.2 0.00 0.00 0.00 80 1014.6
20260904034223 25 93 1.6 4.8 0.00 0.00 0.00 81 1014.6
20260904034156 25 59 4.8 4.8 0.00 0.00 0.00 81 1014.6
20260904033723 25 56 3.2 4.8 0.00 0.00 0.00 81 1014.6
20260904033222 25 90 3.2 4.8 0.00 0.00 0.00 82 1014.6
20260904033157 25 100 1.6 3.2 0.00 0.00 0.00 82 1014.6
20260904032723 25 65 4.8 4.8 0.00 0.00 0.00 83 1014.8
20260904032223 25 71 4.8 4.8 0.00 0.00 0.00 84 1014.8
20260904032158 25 64 1.6 4.8 0.00 0.00 0.00 84 1014.8
20260904031722 25 52 1.6 4.8 0.00 0.00 0.00 85 1014.8
20260904031223 25 83 0.0 0.0 0.00 0.00 0.00 84 1015.0
20260904031156 25 83 0.0 0.0 0.00 0.00 0.00 84 1015.0
20260904030723 25 119 0.0 0.0 0.00 0.00 0.00 84 1015.0
20260904030222 25 119 1.6 1.6 0.00 0.00 0.00 84 1015.0
20260904030157 25 119 0.0 0.0 0.00 0.00 0.00 84 1015.0
20260904025723 25 119 0.0 0.0 0.00 0.00 0.00 83 1014.9
20260904025223 25 119 0.0 0.0 0.00 0.00 0.00 83 1014.9
20260904025156 25 119 0.0 1.6 0.00 0.00 0.00 83 1014.9
20260904024722 26 119 1.6 3.2 0.00 0.00 0.00 82 1014.9
20260904024227 26 119 1.6 1.6 0.00 0.00 0.00 82 1014.8
20260904024223 26 119 0.0 1.6 0.00 0.00 0.00 82 1014.8
20260904024156 26 119 1.6 1.6 0.00 0.00 0.00 82 1014.8
20260904023723 26 119 0.0 0.0 0.00 0.00 0.00 82 1014.8
20260904023222 26 116 3.2 3.2 0.00 0.00 0.00 83 1014.8
20260904023157 26 119 1.6 3.2 0.00 0.00 0.00 83 1014.8
20260904022723 26 152 0.0 0.0 0.00 0.00 0.00 83 1014.6
20260904022223 26 152 0.0 3.2 0.00 0.00 0.00 82 1014.6
20260904022156 26 152 0.0 0.0 0.00 0.00 0.00 82 1014.6
20260904021722 26 212 0.0 0.0 0.00 0.00 0.00 81 1014.6
20260904021223 26 62 0.0 0.0 0.00 0.00 0.00 80 1014.6
20260904021156 26 62 0.0 0.0 0.00 0.00 0.00 80 1014.6
20260904020723 27 62 0.0 0.0 0.00 0.00 0.00 78 1014.6
20260904020222 27 62 0.0 0.0 0.00 0.00 0.00 77 1014.6
20260904020157 27 62 0.0 0.0 0.00 0.00 0.00 76 1014.6
20260904015723 27 62 0.0 0.0 0.00 0.00 0.00 73 1014.4
20260904015223 27 62 0.0 0.0 0.00 0.00 0.00 73 1014.4
20260904015156 27 62 0.0 0.0 0.00 0.00 0.00 73 1014.4
20260904014722 27 62 0.0 0.0 0.00 0.00 0.00 72 1014.4
20260904014223 27 90 4.8 4.8 0.00 0.00 0.00 71 1014.2
20260904014156 27 90 4.8 4.8 0.00 0.00 0.00 71 1014.2
20260904013723 27 92 4.8 4.8 0.00 0.00 0.00 72 1014.2
20260904013224 27 62 1.6 4.8 0.00 0.00 0.00 71 1014.2
20260904013156 27 88 3.2 3.2 0.00 0.00 0.00 71 1014.2
20260904012722 27 78 1.6 4.8 0.00 0.00 0.00 70 1014.0
20260904012223 28 110 3.2 3.2 0.00 0.00 0.00 70 1014.0
20260904012156 28 96 3.2 4.8 0.00 0.00 0.00 70 1014.0
20260904011724 28 76 3.2 4.8 0.00 0.00 0.00 69 1014.0
20260904011222 28 106 4.8 4.8 0.00 0.00 0.00 71 1014.0
20260904011156 28 80 3.2 4.8 0.00 0.00 0.00 71 1014.0
20260904010723 28 89 3.2 4.8 0.00 0.00 0.00 71 1014.0
20260904010223 28 78 3.2 3.2 0.00 0.00 0.00 70 1014.0
20260904010156 28 92 0.0 3.2 0.00 0.00 0.00 70 1014.0
20260904005722 28 79 1.6 4.8 0.00 0.00 0.00 69 1014.0
20260904005223 28 86 3.2 4.8 0.00 0.00 0.00 69 1014.0
20260904005155 28 80 4.8 6.4 0.00 0.00 0.00 69 1014.0
20260904004723 28 73 3.2 3.2 0.00 0.00 0.00 69 1014.0
20260904004222 28 72 1.6 3.2 0.00 0.00 0.00 70 1013.8
20260904004157 28 66 1.6 3.2 0.00 0.00 0.00 70 1013.8
20260904003723 28 72 3.2 3.2 0.00 0.00 0.00 70 1013.8
20260904003222 28 64 3.2 4.8 0.00 0.00 0.00 71 1013.8
20260904003157 28 76 1.6 3.2 0.00 0.00 0.00 71 1013.8
20260904002723 28 82 1.6 4.8 0.00 0.00 0.00 70 1013.8
20260904002223 28 106 3.2 6.4 0.00 0.00 0.00 72 1013.8
20260904002156 28 99 4.8 6.4 0.00 0.00 0.00 72 1013.8
20260904001722 28 78 3.2 3.2 0.00 0.00 0.00 73 1013.8
20260904001224 28 73 1.6 3.2 0.00 0.00 0.00 71 1013.8
20260904001156 28 65 1.6 3.2 0.00 0.00 0.00 71 1013.8
20260904000722 28 93 1.6 3.2 0.00 0.00 0.00 71 1013.8
20260904000223 28 121 3.2 4.8 0.00 0.00 0.00 71 1013.8
20260904000156 28 80 4.8 4.8 0.00 0.00 0.00 71 1013.8
20260903235724 28 66 3.2 4.8 0.00 0.00 0.00 72 1013.7
20260903235224 28 68 0.0 1.6 0.00 0.00 0.00 72 1013.7
20260903235157 28 51 0.0 1.6 0.00 0.00 0.00 72 1013.7
20260903234723 28 72 1.6 4.8 0.00 0.00 0.00 73 1013.7
20260903234223 28 82 3.2 4.8 0.00 0.00 0.00 72 1013.7
20260903234156 28 64 1.6 4.8 0.00 0.00 0.00 72 1013.7
20260903233724 29 99 1.6 4.8 0.00 0.00 0.00 71 1013.7
20260903233223 29 64 4.8 8.0 0.00 0.00 0.00 71 1013.7
20260903233157 29 41 3.2 4.8 0.00 0.00 0.00 71 1013.7
20260903232723 29 23 3.2 4.8 0.00 0.00 0.00 71 1013.6
20260903232224 30 88 3.2 6.4 0.00 0.00 0.00 70 1013.6
20260903232157 30 83 4.8 8.0 0.00 0.00 0.00 70 1013.6
20260903231722 30 65 1.6 6.4 0.00 0.00 0.00 70 1013.6
20260903231223 30 66 4.8 4.8 0.00 0.00 0.00 69 1013.6
20260903231156 30 66 4.8 6.4 0.00 0.00 0.00 69 1013.6
20260903230723 30 112 0.0 3.2 0.00 0.00 0.00 69 1013.6
20260903230222 30 32 4.8 9.7 0.00 0.00 0.00 69 1013.6
20260903230155 30 58 3.2 9.7 0.00 0.00 0.00 69 1013.6
20260903225722 31 89 12.9 16.1 0.00 0.00 0.00 67 1013.4
20260903225222 31 7 1.6 9.7 0.00 0.00 0.00 66 1013.4
20260903225155 31 66 6.4 6.4 0.00 0.00 0.00 66 1013.4
20260903224723 31 72 4.8 11.3 0.00 0.00 0.00 65 1013.4
20260903224222 32 44 3.2 4.8 0.00 0.00 0.00 67 1013.3
20260903224157 32 52 3.2 9.7 0.00 0.00 0.00 66 1013.3
20260903223722 32 112 6.4 17.7 0.00 0.00 0.00 68 1013.3
20260903223222 32 93 6.4 6.4 0.00 0.00 0.00 69 1013.3
20260903223157 32 71 1.6 3.2 0.00 0.00 0.00 69 1013.3
20260903222723 32 69 1.6 1.6 0.00 0.00 0.00 65 1013.2
20260903222223 33 27 3.2 4.8 0.00 0.00 0.00 65 1013.2
20260903222156 33 75 1.6 8.0 0.00 0.00 0.00 65 1013.2
20260903221722 33 107 3.2 6.4 0.00 0.00 0.00 66 1013.2
20260903221223 33 58 4.8 4.8 0.00 0.00 0.00 66 1013.0
20260903221156 33 88 4.8 6.4 0.00 0.00 0.00 65 1013.0
20260903220722 33 85 1.6 4.8 0.00 0.00 0.00 62 1013.0
20260903220223 33 124 1.6 3.2 0.00 0.00 0.00 59 1013.0
20260903220156 33 126 3.2 6.4 0.00 0.00 0.00 59 1013.0
20260903215724 33 93 4.8 4.8 0.00 0.00 0.00 60 1013.0
20260903215222 33 126 6.4 6.4 0.00 0.00 0.00 61 1013.0
20260903215157 33 86 6.4 8.0 0.00 0.00 0.00 61 1013.0
20260903214723 33 104 3.2 6.4 0.00 0.00 0.00 60 1013.0
20260903214223 33 59 1.6 4.8 0.00 0.00 0.00 60 1012.9
20260903214155 33 56 6.4 6.4 0.00 0.00 0.00 60 1012.9
20260903213723 33 54 4.8 6.4 0.00 0.00 0.00 60 1012.9
20260903213224 33 119 0.0 6.4 0.00 0.00 0.00 60 1012.9
20260903213156 33 112 6.4 6.4 0.00 0.00 0.00 58 1012.9
20260903212722 33 124 3.2 4.8 0.00 0.00 0.00 60 1012.9
20260903212223 34 82 1.6 3.2 0.00 0.00 0.00 60 1012.9
20260903212157 34 112 3.2 4.8 0.00 0.00 0.00 60 1012.9
20260903211724 34 109 1.6 6.4 0.00 0.00 0.00 58 1012.9
20260903211222 34 102 0.0 1.6 0.00 0.00 0.00 58 1013.0
20260903211155 34 100 1.6 1.6 0.00 0.00 0.00 58 1013.0
20260903210723 34 75 6.4 6.4 0.00 0.00 0.00 57 1013.0
20260903210224 34 104 4.8 6.4 0.00 0.00 0.00 57 1013.0
20260903210157 34 117 4.8 6.4 0.00 0.00 0.00 57 1013.0
20260903205722 35 140 4.8 8.0 0.00 0.00 0.00 57 1013.2
20260903205236 35 144 0.0 3.2 0.00 0.00 0.00 54 1013.2
20260903205223 35 148 3.2 4.8 0.00 0.00 0.00 54 1013.2
20260903205155 35 144 0.0 3.2 0.00 0.00 0.00 54 1013.2
20260903204723 35 100 3.2 6.4 0.00 0.00 0.00 54 1013.2
20260903204222 35 34 1.6 3.2 0.00 0.00 0.00 56 1013.3
20260903204157 35 34 3.2 3.2 0.00 0.00 0.00 56 1013.3
20260903203723 35 93 4.8 6.4 0.00 0.00 0.00 56 1013.3
20260903203223 35 131 3.2 3.2 0.00 0.00 0.00 57 1013.3
20260903203156 35 18 0.0 0.0 0.00 0.00 0.00 57 1013.3
20260903202722 34 18 0.0 1.6 0.00 0.00 0.00 54 1013.6
20260903202223 34 80 4.8 4.8 0.00 0.00 0.00 58 1013.6
20260903202155 34 41 4.8 4.8 0.00 0.00 0.00 58 1013.6
20260903201723 34 93 3.2 6.4 0.00 0.00 0.00 58 1013.6
20260903201222 34 169 3.2 4.8 0.00 0.00 0.00 58 1013.9
20260903201157 34 152 3.2 8.0 0.00 0.00 0.00 58 1013.9
20260903200723 34 186 1.6 4.8 0.00 0.00 0.00 58 1013.9
20260903200222 34 66 0.0 3.2 0.00 0.00 0.00 58 1013.9
20260903200156 34 37 0.0 4.8 0.00 0.00 0.00 58 1013.9
20260903195723 34 13 3.2 3.2 0.00 0.00 0.00 58 1014.2
20260903195223 34 48 1.6 3.2 0.00 0.00 0.00 58 1014.2
20260903195155 34 27 1.6 6.4 0.00 0.00 0.00 58 1014.2
20260903194722 34 48 3.2 8.0 0.00 0.00 0.00 59 1014.2
20260903194223 34 85 3.2 3.2 0.00 0.00 0.00 59 1014.4
20260903194157 34 89 1.6 3.2 0.00 0.00 0.00 58 1014.4
20260903193723 34 64 3.2 3.2 0.00 0.00 0.00 59 1014.4
20260903193222 34 71 0.0 3.2 0.00 0.00 0.00 58 1014.4
20260903193156 34 65 3.2 3.2 0.00 0.00 0.00 58 1014.4
20260903192723 34 17 3.2 3.2 0.00 0.00 0.00 60 1014.5
20260903192223 34 229 0.0 1.6 0.00 0.00 0.00 61 1014.5
20260903192157 34 120 1.6 1.6 0.00 0.00 0.00 61 1014.5
20260903191724 34 114 1.6 1.6 0.00 0.00 0.00 63 1014.5
20260903191223 33 48 0.0 1.6 0.00 0.00 0.00 61 1014.6
20260903191156 33 48 0.0 1.6 0.00 0.00 0.00 61 1014.6
20260903190722 33 127 1.6 6.4 0.00 0.00 0.00 60 1014.6
20260903190223 33 97 3.2 4.8 0.00 0.00 0.00 63 1014.6
20260903190156 33 10 1.6 3.2 0.00 0.00 0.00 63 1014.6
20260903185723 33 172 1.6 1.6 0.00 0.00 0.00 61 1014.9
20260903185222 33 102 0.0 0.0 0.00 0.00 0.00 59 1014.9
20260903185157 33 86 0.0 0.0 0.00 0.00 0.00 59 1014.9
20260903184723 33 157 1.6 4.8 0.00 0.00 0.00 60 1014.9
20260903184223 33 137 9.7 9.7 0.00 0.00 0.00 63 1014.9
20260903184156 33 138 1.6 3.2 0.00 0.00 0.00 63 1014.9
20260903183724 33 96 0.0 0.0 0.00 0.00 0.00 61 1014.9
20260903183223 33 127 0.0 1.6 0.00 0.00 0.00 59 1014.9
20260903183155 33 82 1.6 3.2 0.00 0.00 0.00 59 1014.9
20260903182722 33 182 1.6 1.6 0.00 0.00 0.00 62 1015.0
20260903182233 33 124 1.6 3.2 0.00 0.00 0.00 58 1015.0
20260903182223 33 124 1.6 1.6 0.00 0.00 0.00 58 1015.0
20260903182156 33 124 1.6 3.2 0.00 0.00 0.00 58 1015.0
20260903181723 33 78 4.8 8.0 0.00 0.00 0.00 58 1015.0
20260903181222 33 93 1.6 3.2 0.00 0.00 0.00 58 1015.3
20260903181201 33 69 3.2 8.0 0.00 0.00 0.00 58 1015.3
20260903180723 33 107 0.0 6.4 0.00 0.00 0.00 56 1015.3
20260903180223 33 78 3.2 9.7 0.00 0.00 0.00 58 1015.3
20260903180156 33 90 9.7 9.7 0.00 0.00 0.00 57 1015.3
20260903175723 33 102 9.7 9.7 0.00 0.00 0.00 59 1015.4
20260903175222 33 215 0.0 1.6 0.00 0.00 0.00 64 1015.4
20260903175155 33 157 1.6 4.8 0.00 0.00 0.00 64 1015.4
20260903174723 33 134 3.2 4.8 0.00 0.00 0.00 63 1015.4
20260903174222 33 27 3.2 8.0 0.00 0.00 0.00 62 1015.5
20260903174157 33 88 6.4 8.0 0.00 0.00 0.00 63 1015.5
20260903173722 33 69 4.8 8.0 0.00 0.00 0.00 62 1015.5
20260903173223 33 155 3.2 4.8 0.00 0.00 0.00 61 1015.5
20260903173200 33 133 3.2 4.8 0.00 0.00 0.00 61 1015.5
20260903172722 33 38 3.2 4.8 0.00 0.00 0.00 61 1015.6
20260903172222 33 47 4.8 8.0 0.00 0.00 0.00 62 1015.6
20260903172155 33 354 8.0 9.7 0.00 0.00 0.00 62 1015.6
20260903171723 33 31 1.6 6.4 0.00 0.00 0.00 60 1015.6
20260903171224 33 192 4.8 8.0 0.00 0.00 0.00 60 1015.9
20260903171157 33 114 4.8 4.8 0.00 0.00 0.00 61 1015.9
20260903170722 33 114 4.8 4.8 0.00 0.00 0.00 60 1015.9
20260903170224 33 28 1.6 1.6 0.00 0.00 0.00 62 1015.9
20260903170156 33 56 1.6 3.2 0.00 0.00 0.00 60 1015.9
20260903165722 33 35 1.6 6.4 0.00 0.00 0.00 60 1016.1
20260903165223 33 96 4.8 8.0 0.00 0.00 0.00 62 1016.1
20260903165156 33 58 6.4 8.0 0.00 0.00 0.00 62 1016.1
20260903164724 33 127 0.0 1.6 0.00 0.00 0.00 63 1016.1
20260903164222 33 141 1.6 3.2 0.00 0.00 0.00 67 1016.3
20260903164155 33 72 3.2 3.2 0.00 0.00 0.00 65 1016.3
20260903163723 33 1 3.2 4.8 0.00 0.00 0.00 66 1016.3
20260903163224 33 28 0.0 3.2 0.00 0.00 0.00 65 1016.3
20260903163156 33 140 1.6 1.6 0.00 0.00 0.00 65 1016.3
20260903162722 33 113 4.8 4.8 0.00 0.00 0.00 67 1016.5
20260903162223 33 88 1.6 4.8 0.00 0.00 0.00 66 1016.5
20260903162155 33 78 4.8 4.8 0.00 0.00 0.00 66 1016.5
20260903161723 33 79 3.2 4.8 0.00 0.00 0.00 66 1016.5
20260903161223 33 8 3.2 4.8 0.00 0.00 0.00 66 1016.6
20260903161156 33 35 1.6 3.2 0.00 0.00 0.00 66 1016.6
20260903160724 33 1 3.2 6.4 0.00 0.00 0.00 66 1016.6
20260903160222 33 340 0.0 1.6 0.00 0.00 0.00 67 1016.6
20260903160155 33 340 1.6 1.6 0.00 0.00 0.00 67 1016.6
20260903155723 33 326 1.6 3.2 0.00 0.00 0.00 67 1016.6
20260903155223 33 3 3.2 4.8 0.00 0.00 0.00 66 1016.6
20260903155201 33 335 1.6 3.2 0.00 0.00 0.00 66 1016.6
20260903154722 33 311 1.6 3.2 0.00 0.00 0.00 66 1016.6
20260903154223 32 357 0.0 3.2 0.00 0.00 0.00 64 1016.6
20260903154156 32 350 1.6 1.6 0.00 0.00 0.00 64 1016.6
20260903153723 32 329 3.2 3.2 0.00 0.00 0.00 64 1016.6
20260903153222 32 344 0.0 0.0 0.00 0.00 0.00 63 1016.6
20260903153200 32 344 0.0 1.6 0.00 0.00 0.00 63 1016.6
20260903152724 32 326 3.2 4.8 0.00 0.00 0.00 64 1016.6
20260903152223 32 326 4.8 4.8 0.00 0.00 0.00 63 1016.6
20260903152159 32 311 1.6 3.2 0.00 0.00 0.00 63 1016.6
20260903151724 32 0 3.2 3.2 0.00 0.00 0.00 61 1016.6
20260903151222 32 357 0.0 1.6 0.00 0.00 0.00 63 1016.4
20260903151155 32 357 1.6 3.2 0.00 0.00 0.00 63 1016.4
20260903150723 32 330 1.6 1.6 0.00 0.00 0.00 71 1016.4
20260903150223 32 344 1.6 3.2 0.00 0.00 0.00 70 1016.4
20260903150156 32 350 0.0 3.2 0.00 0.00 0.00 69 1016.4
20260903145722 31 315 0.0 1.6 0.00 0.00 0.00 70 1016.1
20260903145251 31 0 1.6 4.8 0.00 0.00 0.00 73 1016.1
20260903145222 31 0 3.2 3.2 0.00 0.00 0.00 73 1016.1
20260903145155 31 0 1.6 4.8 0.00 0.00 0.00 73 1016.1
20260903144722 31 316 0.0 0.0 0.00 0.00 0.00 72 1016.1
20260903144354 31 316 0.0 0.0 0.00 0.00 0.00 71 1016.1
20260903144223 31 316 0.0 0.0 0.00 0.00 0.00 72 1016.1
20260903144157 31 316 0.0 0.0 0.00 0.00 0.00 71 1016.1
20260903143723 31 316 0.0 0.0 0.00 0.00 0.00 71 1016.1
20260903143222 31 315 0.0 3.2 0.00 0.00 0.00 71 1016.1
20260903143157 31 315 1.6 3.2 0.00 0.00 0.00 71 1016.1
20260903142723 31 298 0.0 3.2 0.00 0.00 0.00 69 1016.2
20260903142242 31 322 1.6 3.2 0.00 0.00 0.00 70 1016.2
20260903142223 31 320 0.0 1.6 0.00 0.00 0.00 69 1016.2
20260903142200 31 322 1.6 3.2 0.00 0.00 0.00 70 1016.2
20260903141723 30 0 0.0 0.0 0.00 0.00 0.00 71 1016.2
20260903141224 30 0 0.0 0.0 0.00 0.00 0.00 69 1016.4
20260903141206 30 0 0.0 0.0 0.00 0.00 0.00 69 1016.4
20260903140722 30 0 0.0 0.0 0.00 0.00 0.00 76 1016.4
20260903140223 30 143 0.0 0.0 0.00 0.00 0.00 79 1016.4
20260903140155 30 143 0.0 0.0 0.00 0.00 0.00 78 1016.4
20260903135724 30 143 0.0 0.0 0.00 0.00 0.00 78 1016.5
20260903135222 30 143 0.0 0.0 0.00 0.00 0.00 77 1016.5
20260903135157 29 143 0.0 0.0 0.00 0.00 0.00 80 1016.5
20260903134723 29 143 0.0 0.0 0.00 0.00 0.00 80 1016.5
20260903134223 28 143 0.0 0.0 0.00 0.00 0.00 81 1016.6
20260903134156 28 143 0.0 0.0 0.00 0.00 0.00 81 1016.6
20260903133722 28 143 0.0 0.0 0.00 0.00 0.00 81 1016.6
20260903133224 28 143 0.0 0.0 0.00 0.00 0.00 83 1016.6
20260903133157 28 143 0.0 0.0 0.00 0.00 0.00 83 1016.6
20260903132722 27 143 0.0 0.0 0.00 0.00 0.00 83 1016.6
20260903132223 27 143 0.0 0.0 0.00 0.00 0.00 85 1016.6
20260903132157 27 143 0.0 0.0 0.00 0.00 0.00 85 1016.6
20260903131724 27 143 0.0 0.0 0.00 0.00 0.00 85 1016.6
20260903131223 27 143 0.0 0.0 0.00 0.00 0.00 85 1016.6
20260903131155 27 65 0.0 0.0 0.00 0.00 0.00 86 1016.6
20260903130723 26 65 0.0 0.0 0.00 0.00 0.00 86 1016.6
20260903130223 26 65 0.0 0.0 0.00 0.00 0.00 86 1016.6
20260903130157 26 65 0.0 0.0 0.00 0.00 0.00 86 1016.6
20260903125723 26 65 0.0 0.0 0.00 0.00 0.00 86 1016.6
20260903125224 26 65 0.0 0.0 0.00 0.00 0.00 87 1016.6
20260903125157 26 65 0.0 0.0 0.00 0.00 0.00 87 1016.6
20260903124722 25 65 0.0 0.0 0.00 0.00 0.00 88 1016.6
20260903124222 25 65 0.0 0.0 0.00 0.00 0.00 87 1016.6
20260903124158 25 65 0.0 0.0 0.00 0.00 0.00 87 1016.6
20260903123723 25 65 0.0 0.0 0.00 0.00 0.00 88 1016.6
20260903123223 25 65 0.0 0.0 0.00 0.00 0.00 88 1016.6
20260903123156 25 65 0.0 0.0 0.00 0.00 0.00 88 1016.6
20260903122722 25 76 0.0 0.0 0.00 0.00 0.00 89 1016.4
20260903122223 25 85 0.0 0.0 0.00 0.00 0.00 89 1016.4
20260903122155 25 93 0.0 0.0 0.00 0.00 0.00 89 1016.4
20260903121723 25 103 0.0 0.0 0.00 0.00 0.00 90 1016.4
20260903121222 24 103 0.0 0.0 0.00 0.00 0.00 90 1016.4
20260903121157 24 103 0.0 0.0 0.00 0.00 0.00 90 1016.4
20260903120722 24 136 0.0 0.0 0.00 0.00 0.00 90 1016.4
20260903120223 24 114 0.0 0.0 0.00 0.00 0.00 90 1016.4
20260903120157 24 114 0.0 0.0 0.00 0.00 0.00 90 1016.4
20260903115722 24 42 0.0 0.0 0.00 0.00 0.00 90 1016.3
20260903115222 24 42 0.0 1.6 0.00 0.00 0.00 89 1016.3
20260903115155 24 42 0.0 0.0 0.00 0.00 0.00 89 1016.3
20260903114723 24 42 0.0 0.0 0.00 0.00 0.00 89 1016.3
20260903114224 24 42 0.0 0.0 0.00 0.00 0.00 89 1016.0
20260903114157 24 42 0.0 0.0 0.00 0.00 0.00 89 1016.0
20260903113723 25 42 0.0 0.0 0.00 0.00 0.00 89 1016.0
20260903113222 25 42 0.0 0.0 0.00 0.00 0.00 89 1016.0
20260903113157 25 42 0.0 0.0 0.00 0.00 0.00 89 1016.0
20260903112723 25 42 0.0 0.0 0.00 0.00 0.00 89 1015.8
20260903112223 25 42 0.0 1.6 0.00 0.00 0.00 88 1015.8
20260903112156 25 42 1.6 1.6 0.00 0.00 0.00 88 1015.8
20260903111723 25 92 0.0 0.0 0.00 0.00 0.00 88 1015.8
20260903111224 25 92 0.0 0.0 0.00 0.00 0.00 89 1015.7
20260903111156 25 92 0.0 0.0 0.00 0.00 0.00 89 1015.7
20260903110722 25 92 0.0 0.0 0.00 0.00 0.00 89 1015.7
20260903110223 25 92 0.0 0.0 0.00 0.00 0.00 89 1015.7
20260903110156 25 92 0.0 0.0 0.00 0.00 0.00 89 1015.7
20260903105724 25 92 0.0 0.0 0.00 0.00 0.00 89 1015.7
20260903105222 25 92 0.0 3.2 0.00 0.00 0.00 88 1015.7
20260903105157 25 92 0.0 1.6 0.00 0.00 0.00 88 1015.7
20260903104723 25 92 1.6 3.2 0.00 0.00 0.00 88 1015.7
20260903104224 25 102 1.6 3.2 0.00 0.00 0.00 88 1015.7
20260903104156 25 97 0.0 0.0 0.00 0.00 0.00 88 1015.7
20260903103722 25 93 3.2 3.2 0.00 0.00 0.00 88 1015.7
20260903103224 25 93 1.6 3.2 0.00 0.00 0.00 88 1015.7
20260903103156 25 110 1.6 3.2 0.00 0.00 0.00 88 1015.7
20260903102723 25 85 1.6 3.2 0.00 0.00 0.00 88 1015.5
20260903102222 25 96 1.6 3.2 0.00 0.00 0.00 88 1015.5
20260903102157 25 103 1.6 4.8 0.00 0.00 0.00 88 1015.5
20260903101723 25 113 3.2 4.8 0.00 0.00 0.00 88 1015.5
20260903101224 25 80 1.6 1.6 0.00 0.00 0.00 88 1015.6
20260903101156 25 88 0.0 3.2 0.00 0.00 0.00 88 1015.6
20260903100722 25 66 3.2 3.2 0.00 0.00 0.00 88 1015.6
20260903100223 25 110 0.0 0.0 0.00 0.00 0.00 86 1015.6
20260903100158 25 116 0.0 0.0 0.00 0.00 0.00 86 1015.6
20260903095724 25 127 1.6 3.2 0.00 0.00 0.00 86 1015.4
20260903095222 25 106 1.6 1.6 0.00 0.00 0.00 85 1015.4
20260903095156 25 117 1.6 1.6 0.00 0.00 0.00 85 1015.4
20260903094723 25 143 1.6 3.2 0.00 0.00 0.00 85 1015.4
20260903094223 25 136 0.0 0.0 0.00 0.00 0.00 85 1015.3
20260903094155 25 131 0.0 0.0 0.00 0.00 0.00 85 1015.3
20260903093722 25 131 0.0 1.6 0.00 0.00 0.00 85 1015.3
20260903093223 25 106 3.2 3.2 0.00 0.00 0.00 85 1015.3
20260903093155 25 120 0.0 3.2 0.00 0.00 0.00 85 1015.3
20260903092722 25 112 3.2 3.2 0.00 0.00 0.00 85 1015.3
20260903092223 25 104 0.0 0.0 0.00 0.00 0.00 85 1015.3
20260903092156 25 107 0.0 0.0 0.00 0.00 0.00 85 1015.3
20260903091724 25 112 0.0 0.0 0.00 0.00 0.00 85 1015.3
20260903091222 25 114 0.0 0.0 0.00 0.00 0.00 85 1015.3
20260903091155 25 80 0.0 0.0 0.00 0.00 0.00 85 1015.3
20260903090723 25 80 0.0 0.0 0.00 0.00 0.00 85 1015.3
20260903090224 25 80 0.0 0.0 0.00 0.00 0.00 86 1015.3
20260903090157 25 80 0.0 0.0 0.00 0.00 0.00 86 1015.3
20260903085723 25 80 0.0 0.0 0.00 0.00 0.00 86 1015.3
20260903085223 25 80 0.0 0.0 0.00 0.00 0.00 86 1015.3
20260903085157 25 80 0.0 0.0 0.00 0.00 0.00 86 1015.3
20260903084724 25 82 0.0 0.0 0.00 0.00 0.00 86 1015.3
20260903084222 25 80 0.0 0.0 0.00 0.00 0.00 86 1015.3
20260903084155 25 80 0.0 0.0 0.00 0.00 0.00 86 1015.3
20260903083723 25 80 0.0 0.0 0.00 0.00 0.00 87 1015.3
20260903083224 25 80 0.0 0.0 0.00 0.00 0.00 87 1015.3
20260903083200 25 80 0.0 0.0 0.00 0.00 0.00 87 1015.3
20260903082722 25 80 0.0 0.0 0.00 0.00 0.00 87 1015.2
20260903082223 25 80 0.0 0.0 0.00 0.00 0.00 86 1015.2
20260903082156 25 80 0.0 0.0 0.00 0.00 0.00 86 1015.2
20260903081723 25 80 0.0 0.0 0.00 0.00 0.00 86 1015.2
20260903081222 25 80 0.0 0.0 0.00 0.00 0.00 85 1015.0
20260903081156 25 80 0.0 0.0 0.00 0.00 0.00 85 1015.0
20260903080723 25 80 0.0 0.0 0.00 0.00 0.00 85 1015.0
20260903080223 26 80 0.0 0.0 0.00 0.00 0.00 85 1015.0
20260903080156 26 80 0.0 0.0 0.00 0.00 0.00 85 1015.0
20260903075722 26 80 0.0 0.0 0.00 0.00 0.00 84 1015.1
20260903075223 26 80 0.0 0.0 0.00 0.00 0.00 85 1015.1
20260903075155 26 80 0.0 0.0 0.00 0.00 0.00 85 1015.1
20260903074724 26 80 0.0 0.0 0.00 0.00 0.00 85 1015.1
20260903074222 26 80 0.0 0.0 0.00 0.00 0.00 86 1015.2
20260903074155 26 80 0.0 0.0 0.00 0.00 0.00 86 1015.2
20260903073723 26 80 0.0 0.0 0.00 0.00 0.00 86 1015.2
20260903073223 26 80 0.0 0.0 0.00 0.00 0.00 87 1015.2
20260903073156 26 80 0.0 0.0 0.00 0.00 0.00 88 1015.2
20260903072722 26 80 0.0 0.0 0.00 0.00 0.00 88 1015.3
20260903072223 26 82 0.0 0.0 0.00 0.00 0.00 87 1015.3
20260903072155 26 80 0.0 0.0 0.00 0.00 0.00 87 1015.3
20260903071723 26 80 0.0 0.0 0.00 0.00 0.00 87 1015.3
20260903071222 26 80 0.0 0.0 0.00 0.00 0.00 87 1015.3
20260903071157 26 80 0.0 0.0 0.00 0.00 0.00 87 1015.3
20260903070723 26 80 0.0 0.0 0.00 0.00 0.00 86 1015.3
20260903070223 26 80 0.0 0.0 0.00 0.00 0.00 86 1015.3
20260903070156 26 80 0.0 0.0 0.00 0.00 0.00 86 1015.3
20260903065722 26 80 0.0 0.0 0.00 0.00 0.00 86 1015.2
20260903065223 26 80 0.0 0.0 0.00 0.00 0.00 85 1015.2
20260903065156 26 80 0.0 0.0 0.00 0.00 0.00 85 1015.2
20260903064723 26 80 0.0 0.0 0.00 0.00 0.00 85 1015.2
20260903064222 26 80 0.0 0.0 0.00 0.00 0.00 83 1015.2
20260903064157 26 80 0.0 0.0 0.00 0.00 0.00 83 1015.2
20260903063724 26 80 0.0 0.0 0.00 0.00 0.00 82 1015.2
20260903063222 26 80 0.0 0.0 0.00 0.00 0.00 82 1015.2
20260903063155 26 80 0.0 0.0 0.00 0.00 0.00 82 1015.2
20260903062723 26 80 0.0 0.0 0.00 0.00 0.00 83 1015.2
20260903062224 26 80 0.0 0.0 0.00 0.00 0.00 84 1015.2
20260903062156 26 80 0.0 0.0 0.00 0.00 0.00 84 1015.2
20260903061722 27 80 0.0 0.0 0.00 0.00 0.00 84 1015.2
20260903061223 27 80 0.0 0.0 0.00 0.00 0.00 84 1015.2
20260903061156 27 80 0.0 0.0 0.00 0.00 0.00 85 1015.2
20260903060724 27 80 0.0 0.0 0.00 0.00 0.00 85 1015.2
20260903060222 27 80 0.0 0.0 0.00 0.00 0.00 84 1015.2
20260903060155 27 80 0.0 0.0 0.00 0.00 0.00 84 1015.2
20260903055723 27 80 0.0 0.0 0.00 0.00 0.00 84 1015.3
20260903055223 27 80 0.0 0.0 0.00 0.00 0.00 83 1015.3
20260903055156 27 80 0.0 0.0 0.00 0.00 0.00 83 1015.3
20260903054723 27 80 0.0 0.0 0.00 0.00 0.00 83 1015.3
20260903054223 27 80 0.0 0.0 0.00 0.00 0.00 82 1015.4
20260903054156 27 80 0.0 0.0 0.00 0.00 0.00 82 1015.4
20260903053723 27 80 0.0 0.0 0.00 0.00 0.00 81 1015.4
20260903053222 27 80 0.0 0.0 0.00 0.00 0.00 80 1015.4
20260903053157 27 80 0.0 0.0 0.00 0.00 0.00 80 1015.4
20260903052723 27 80 0.0 0.0 0.00 0.00 0.00 79 1015.4
20260903052223 27 80 0.0 0.0 0.00 0.00 0.00 78 1015.4
20260903052156 27 80 0.0 0.0 0.00 0.00 0.00 78 1015.4
20260903051722 27 80 0.0 0.0 0.00 0.00 0.00 76 1015.4
20260903051223 27 80 0.0 1.6 0.00 0.00 0.00 76 1015.4
20260903051156 27 82 1.6 1.6 0.00 0.00 0.00 76 1015.4
20260903050723 27 80 0.0 1.6 0.00 0.00 0.00 73 1015.4
20260903050222 27 80 0.0 1.6 0.00 0.00 0.00 73 1015.4
20260903050157 27 80 1.6 1.6 0.00 0.00 0.00 73 1015.4
20260903045723 27 72 0.0 1.6 0.00 0.00 0.00 73 1015.5